Christchurch Aero AWS, New Zealand

3:53 PM NZDT on February 22, 2017 (GMT +1300)
Christchurch International

Weather History for NZCH - February, 2013

Change the Weather History Date:

Tuesday, February 19, 2013

  Actual Average Record
Temperature  
Mean Temperature 62 °F -  
Max Temperature 73 °F 69 °F 82 °F (1999)
Min Temperature 50 °F 51 °F 46 °F (1998)
Degree Days  
Heating Degree Days 4    
Growing Degree Days 12 (Base 50)    
Moisture  
Dew Point 54 °F    
Average Humidity 78    
Maximum Humidity 100    
Minimum Humidity 50    
Precipitation  
Precipitation 0.00 in - - ()
Sea Level Pressure  
Sea Level Pressure 30.23 in    
Wind  
Wind Speed 8 mph ()    
Max Wind Speed 20 mph    
Max Gust Speed -    
Visibility 6.2 miles    
Events Fog    
Averages and records for this station are not official NWS values.
T = Trace of Precipitation, MM = Missing Value Source: Averaged Metar Reports

Daily Weather History Graph

Daily Weather History Graph

Search for Another Location

Airport or City:

Trip Planner

Search our weather history database for the weather conditions in past years. The results will help you decide how hot, cold, wet, or windy it might be!

Date:

Astronomy

Feb. 19, 2013 Rise Set
Actual Time 6:54 AM NZDT 8:31 PM NZDT
Civil Twilight 6:24 AM NZDT 9:01 PM NZDT
Nautical Twilight 5:48 AM NZDT 9:38 PM NZDT
Astronomical Twilight 5:08 AM NZDT 10:17 PM NZDT
Moon 3:48 PM NZDT (2/19) 12:34 AM NZDT (2/19)
Length of Visible Light 14h 37m
Length of Day
13h 36m
First Quarter, 60% of the Moon is Illuminated
Feb 19
First Quarter
Feb 26
Full
Mar 5
Last Quarter
Mar 12
New
Mar 20
First Quarter

Hourly Weather History & Observations

Time (NZDT) Temp. Dew Point Humidity Pressure Visibility Wind Dir Wind Speed Gust Speed Precip Events Conditions
12:00 AM 53.6 °F 53.6 °F 100% 30.30 in - NE 6.9 mph - N/A   Clear
1:00 AM 53.6 °F 53.6 °F 100% 30.30 in - NE 5.8 mph - N/A   Clear
2:00 AM 53.6 °F 53.6 °F 100% 30.30 in 6.2 mi NNE 5.8 mph - N/A   Partly Cloudy
3:00 AM 53.6 °F 51.8 °F 94% 30.27 in 6.2 mi NE 5.8 mph - N/A   Partly Cloudy
4:00 AM 53.6 °F 51.8 °F 94% 30.27 in 6.2 mi North 3.5 mph - N/A   Scattered Clouds
5:00 AM 51.8 °F 50.0 °F 94% 30.27 in 6.2 mi North 3.5 mph - N/A Fog Partly Cloudy
6:00 AM 50.0 °F 50.0 °F 100% 30.27 in 6.2 mi NNW 1.2 mph - N/A   Partly Cloudy
7:00 AM 50.0 °F 48.2 °F 94% 30.27 in 6.2 mi NNW 2.3 mph - N/A Fog Patches of Fog
8:00 AM 50.0 °F 50.0 °F 100% 30.27 in 6.2 mi NNE 3.5 mph - N/A Fog Patches of Fog
9:00 AM 57.2 °F 57.2 °F 100% 30.27 in 6.2 mi NE 6.9 mph - N/A   Partly Cloudy
10:00 AM 62.6 °F 55.4 °F 77% 30.27 in - NNE 5.8 mph - N/A   Clear
11:00 AM 69.8 °F 55.4 °F 60% 30.27 in - East 9.2 mph - N/A   Clear
12:00 PM 71.6 °F 55.4 °F 57% 30.27 in - East 12.7 mph - N/A   Clear
1:00 PM 71.6 °F 53.6 °F 53% 30.24 in - East 16.1 mph - N/A   Clear
2:00 PM 71.6 °F 55.4 °F 57% 30.21 in - East 17.3 mph - N/A   Clear
3:00 PM 73.4 °F 53.6 °F 50% 30.21 in - ENE 18.4 mph - N/A   Clear
4:00 PM 71.6 °F 53.6 °F 53% 30.18 in - ENE 19.6 mph - N/A   Clear
5:00 PM 69.8 °F 51.8 °F 53% 30.15 in - ENE 19.6 mph - N/A   Clear
6:00 PM 69.8 °F 53.6 °F 56% 30.15 in - East 19.6 mph - N/A   Clear
7:00 PM 68.0 °F 55.4 °F 64% 30.15 in - East 19.6 mph - N/A   Clear
8:00 PM 64.4 °F 55.4 °F 73% 30.15 in - East 18.4 mph - N/A   Clear
9:00 PM 62.6 °F 57.2 °F 82% 30.15 in - ENE 16.1 mph - N/A   Clear
10:00 PM 62.6 °F 57.2 °F 82% 30.15 in - East 17.3 mph - N/A   Clear
11:00 PM 62.6 °F 59.0 °F 88% 30.15 in - East 15.0 mph - N/A   Clear